Flag for Canada Weather past 2 weeks in Abbotsford, British Columbia, Canada

Now
59 °F

Partly cloudy.


Feels Like: 59 °F
Forecast: 59 / 69 °F
Wind: 2 mph from North

Location: Abbotsford

Current Time: Aug 28, 2014 at 7:10:43 AM

Latest Report: Aug 28, 2014 at 6:00 AM


Visibility: 30 mi

Pressure: 30.03 "Hg

Humidity: 94%

Dew point: 57 °F

Location of AbbotsfordLocation

Historic Weather in Abbotsford — Graph

°F

Abbotsford temperature yesterday

Maximum temperature yesterday: 82 °F (at 3:00 PM)
Minimum temperature yesterday: 59 °F (at 4:00 AM)
Average temperature yesterday: 70 °F

Past Weeks' High & Low Weather Summary

 TemperatureHumidityPressure
High86 °F (Aug 26, 4:00 PM)100% (Aug 13, 6:00 AM)30.15 "Hg (Aug 13, 6:00 AM)
Low54 °F (Aug 21, 5:00 AM)42% (Aug 23, 6:00 PM)29.76 "Hg (Aug 19, 8:00 PM)
Average66 °F80%30.00 "Hg
* Reported Aug 13 6:00 AM — Aug 28 6:00 AM, Abbotsford, Weather by CustomWeather, © 2014

Note: Actual official high and low records may vary slightly from our data, if they occured in-between our weather recording intervals... More about our weather records

Advertising

Abbotsford weather history for previous 24 hours

 ConditionsComfort  
Time TempWeatherWind HumidityBarometerVisibility
6:00 AM
Aug 28
59 °FPartly cloudy.2 mph94%30.03 "Hg30 mi
5:00 AM59 °FPassing clouds.5 mph94%30.03 "Hg10 mi
4:00 AM59 °FPassing clouds.9 mph94%30.02 "Hg10 mi
3:00 AM59 °FPassing clouds.6 mph94%30.00 "Hg10 mi
2:00 AM61 °FPassing clouds.6 mph88%29.99 "Hg10 mi
1:00 AM61 °FPassing clouds.5 mph83%29.99 "Hg10 mi
12:00 AM61 °FPassing clouds.3 mph83%29.99 "Hg10 mi
11:00 PM
Aug 27
64 °FPassing clouds.3 mph78%29.99 "Hg10 mi
10:00 PM64 °FPassing clouds.5 mph83%29.99 "Hg10 mi
9:00 PM70 °FBroken clouds.2 mph69%29.98 "Hg10 mi
8:00 PM72 °FPartly sunny.7 mph65%29.97 "Hg30 mi
7:00 PM75 °FScattered clouds.12 mph61%29.98 "Hg30 mi
6:00 PM79 °FPartly sunny.10 mph51%29.98 "Hg30 mi
5:00 PM81 °FPassing clouds.12 mph48%29.98 "Hg30 mi
4:00 PM81 °FPassing clouds.9 mph48%29.99 "Hg30 mi
3:00 PM82 °FPassing clouds.10 mph48%30.00 "Hg30 mi
2:00 PM81 °FPassing clouds.12 mph51%30.01 "Hg30 mi
1:00 PM81 °FPassing clouds.13 mph54%30.02 "Hg30 mi
12:00 PM77 °FPassing clouds.6 mph57%30.03 "Hg30 mi
11:00 AM75 °FPassing clouds.6 mph65%30.03 "Hg30 mi
10:00 AM72 °FPassing clouds.5 mph73%30.04 "Hg30 mi
9:00 AM66 °FPassing clouds.5 mph83%30.03 "Hg30 mi
8:00 AM63 °FPassing clouds.5 mph88%30.04 "Hg30 mi
7:00 AM61 °FPassing clouds.5 mph94%30.03 "Hg30 mi
Weather by CustomWeather, © 2014

See weather overviewHow to use our weather pages